Theta_e
305 306 311 313 314 314 314 314 315 314 314 318 318 317 316 317 316 311 308 306 302 303 310 311 314 313 312 311 313 312 314 315 315 314 316 312 315 313 313 315 314 315 315 315 314
306 306 305 305 304 306 310 313 313 313 311 314 319 318 318 317 316 317 311 307 305 302 307 310 313 311 312 313 312 313 313 315 314 315 315 314 314 315 315 315 315 315 315 314 314
308 308 307 307 306 305 304 304 310 311 312 311 316 318 318 317 316 314 307 307 307 302 303 310 313 312 312 312 312 313 314 313 312 312 312 314 313 313 315 316 317 317 316 315 314
306 306 308 307 306 305 305 304 306 306 306 310 313 315 316 317 319 309 310 312 307 307 302 309 312 312 312 312 312 312 312 311 311 311 311 313 312 314 314 317 315 314 314 314 314
304 303 305 307 307 305 305 306 303 306 305 308 310 312 314 314 315 315 314 315 312 303 305 311 311 311 312 311 311 312 312 311 311 310 311 310 312 313 312 314 314 314 313 313 312
303 304 304 305 306 307 305 304 304 303 303 303 307 310 311 313 312 312 313 314 305 302 309 312 312 311 311 310 311 312 312 311 310 311 311 312 313 311 313 313 313 312 313 312 312
302 302 303 304 304 305 306 305 304 304 303 302 303 306 308 311 311 312 313 311 309 311 311 311 310 310 311 311 310 311 311 312 311 311 312 310 312 312 312 312 311 311 312 311 312
300 300 301 302 304 304 304 306 305 304 303 302 303 305 307 308 308 310 311 311 311 312 312 310 310 310 309 309 310 311 311 312 312 312 311 312 315 316 313 311 312 312 311 312 312
300 300 300 300 301 302 303 304 306 304 304 302 302 304 306 306 306 305 308 310 311 311 312 312 309 310 309 312 312 312 313 313 313 311 312 312 314 315 312 311 312 312 311 312 312
300 300 299 300 299 299 300 303 306 305 303 302 303 303 304 306 307 306 306 307 310 311 311 309 309 311 311 313 315 313 312 312 312 312 311 313 313 314 311 310 312 313 312 312 313
300 300 300 300 300 299 301 301 306 304 304 303 303 303 305 307 304 307 310 309 310 310 313 309 311 313 312 312 311 312 312 313 312 310 311 313 313 314 314 311 311 312 313 314 313
300 299 300 300 300 301 300 303 303 301 303 303 302 303 303 303 304 306 308 311 310 312 311 310 311 310 310 311 311 311 313 314 312 310 311 315 314 313 313 312 312 313 314 314 314
299 299 300 300 299 300 301 302 302 302 301 302 302 302 302 302 304 306 309 310 310 311 312 313 311 308 309 310 311 311 311 312 312 311 311 312 314 315 314 313 313 313 313 314 314
298 298 299 299 300 300 301 301 300 302 303 303 302 302 301 302 303 303 307 310 310 311 311 312 311 308 309 309 310 311 311 311 311 311 313 311 316 315 313 313 311 311 312 313 313
297 298 298 298 299 300 300 300 300 301 302 301 302 302 302 303 303 303 305 309 312 311 311 311 311 308 309 309 309 310 310 310 311 311 312 311 311 313 310 312 313 314 313 314 312
298 298 298 298 299 299 300 300 301 301 301 300 303 304 303 302 303 305 304 307 309 310 311 310 308 309 309 308 309 309 309 309 310 311 314 311 312 313 315 313 315 314 313 311 310
297 298 298 299 299 299 299 300 301 302 299 302 304 304 305 304 303 306 306 308 310 311 311 310 310 307 307 308 308 309 310 312 312 313 314 310 312 313 314 312 313 314 312 310 310
297 297 297 298 298 299 299 298 301 301 300 301 304 304 304 305 304 305 307 306 308 309 311 312 312 310 307 309 309 309 310 312 313 313 312 308 311 312 312 312 312 308 308 308 309
296 297 299 298 297 298 299 300 300 300 300 300 304 304 304 305 306 304 306 307 306 309 310 312 310 310 308 308 309 309 310 311 310 305 311 312 311 310 310 310 309 308 306 307 309
297 297 296 297 297 298 299 301 300 299 299 300 303 304 305 305 305 306 305 305 307 307 309 309 311 310 309 309 309 309 310 309 310 315 313 312 312 313 312 312 311 309 308 307 307
296 297 298 297 297 298 300 300 299 297 301 300 302 304 304 305 306 305 305 306 306 307 308 309 309 309 310 308 310 309 311 310 310 311 313 313 312 313 313 312 312 310 306 306 307
296 296 297 298 299 298 299 299 298 300 301 302 302 302 304 304 306 305 305 305 306 307 308 308 309 310 310 310 310 310 311 310 312 311 311 313 312 307 308 308 307 307 307 307 307
296 296 296 298 299 300 296 298 299 301 301 302 301 302 302 303 303 305 305 305 304 306 307 308 309 311 310 309 307 310 310 311 311 312 312 314 313 304 305 306 307 308 307 307 307
295 297 295 297 296 299 298 298 299 299 300 300 301 301 302 302 302 304 304 305 304 304 305 307 307 308 310 309 310 310 311 311 311 313 313 313 312 308 307 309 308 307 307 307 307
294 296 295 295 296 298 298 298 299 300 299 299 299 300 302 301 302 302 302 303 303 303 305 306 310 308 308 308 308 310 312 311 311 312 313 313 312 313 310 309 310 308 307 307 307
291 291 292 296 295 297 298 296 299 297 299 299 298 299 298 299 301 301 302 303 303 304 303 305 308 305 307 308 309 308 311 311 311 311 311 312 312 311 309 306 307 307 307 307 308
294 295 296 296 297 297 298 297 298 298 297 298 299 298 298 298 299 300 300 301 302 304 304 305 307 307 307 307 306 305 307 310 310 310 311 312 312 310 306 306 308 306 306 307 308
Wind_Speed
12 17 23 27 25 24 21 24 23 19 16 13 12 13 16 18 17 17 18 10 10 17 9 17 17 16 15 10 9 6 6 12 12 9 5 5 7 4 4 4 7 9 6 6 6
13 13 12 12 17 22 25 25 27 28 23 18 12 13 14 17 20 21 15 14 14 12 18 19 19 17 10 9 8 11 8 13 7 9 5 5 8 5 5 8 8 10 15 11 9
15 15 14 12 12 13 15 21 22 21 23 21 14 10 10 12 17 5 3 5 8 16 17 16 16 15 12 9 11 9 11 10 6 9 5 4 5 5 7 9 11 12 13 17 14
19 17 16 16 13 11 11 10 18 18 20 24 21 12 12 10 6 9 2 9 9 19 19 21 18 14 11 12 13 7 14 9 3 6 5 5 3 5 14 9 6 9 10 12 17
21 20 19 18 17 14 12 11 9 16 16 21 24 22 15 12 20 20 24 27 15 17 21 20 20 21 13 10 9 14 13 9 15 7 8 5 9 8 13 18 18 14 12 13 16
22 20 18 18 17 18 16 14 12 9 12 17 24 23 17 20 20 24 24 15 8 13 18 21 12 18 12 8 18 6 21 17 5 13 10 7 8 4 9 16 22 23 23 21 20
20 24 21 19 17 21 18 17 15 14 13 12 18 24 23 25 16 12 8 8 9 9 12 20 21 14 8 6 15 14 10 6 15 11 6 8 13 22 23 17 12 10 15 23 25
19 22 22 25 20 18 17 17 17 15 15 11 13 16 22 14 29 36 24 15 12 9 12 18 21 12 7 2 2 9 8 14 9 15 8 10 22 14 14 18 26 21 25 29 30
17 18 18 18 27 23 19 18 17 16 14 13 12 14 20 11 22 34 38 38 22 20 15 14 12 17 10 11 8 10 13 18 13 14 5 15 15 15 13 15 17 14 15 19 21
22 21 21 19 18 19 24 19 18 17 16 12 9 5 18 13 18 23 29 37 21 14 8 12 10 12 16 16 18 13 14 10 16 7 10 12 18 16 6 8 12 13 13 18 21
21 21 18 17 17 15 15 15 13 9 21 18 14 10 4 9 18 14 17 23 23 16 14 14 11 21 26 23 19 11 16 20 9 5 8 16 19 22 24 17 19 22 22 23 29
23 22 21 17 16 15 16 15 18 4 9 36 32 24 24 15 6 15 18 16 22 23 20 12 27 21 17 20 21 19 14 17 5 3 8 7 14 19 19 18 24 25 26 27 29
25 24 22 19 17 19 22 21 17 19 6 9 34 34 26 23 17 11 21 24 18 23 24 26 16 19 18 17 22 24 24 13 9 2 5 8 18 18 19 22 26 26 30 28 32
24 24 23 16 17 19 22 19 18 15 5 5 11 14 23 15 13 39 23 18 14 27 23 19 26 17 22 26 24 25 21 19 15 6 11 5 13 11 7 13 12 22 26 34 32
25 24 22 21 12 11 9 12 17 10 6 7 10 5 10 26 10 27 43 28 21 19 15 19 16 22 19 21 22 19 13 18 19 17 16 19 7 9 4 11 17 17 22 19 18
26 21 23 22 24 19 10 13 17 6 9 8 9 11 10 24 16 4 34 25 19 19 21 28 11 22 26 18 20 12 10 7 6 11 15 18 15 18 18 13 9 8 14 11 13
25 22 23 22 20 19 20 20 6 7 1 7 9 11 20 14 21 14 21 23 12 15 15 19 20 7 11 18 13 19 17 7 8 8 15 4 14 22 10 11 14 14 10 8 9
21 23 24 29 25 20 25 7 11 7 11 3 10 16 16 13 16 19 15 24 26 22 14 18 13 24 15 16 14 25 22 9 11 9 13 7 11 8 12 23 19 14 14 13 15
22 24 27 30 23 28 28 11 8 9 15 10 7 12 15 19 9 22 21 21 27 25 20 17 21 22 21 12 22 20 18 23 6 2 3 11 15 9 11 12 13 14 8 10 11
20 22 32 27 26 32 13 19 11 11 5 18 19 15 15 15 13 14 17 20 25 28 25 8 18 17 22 22 18 18 25 10 9 15 14 11 12 10 9 16 10 9 11 9 8
19 10 23 26 28 25 10 8 9 10 13 16 18 14 11 12 17 12 6 11 28 26 25 19 13 7 14 17 21 12 16 11 11 11 14 16 13 8 13 7 15 11 6 7 9
20 6 14 24 11 3 9 6 10 13 12 5 7 6 7 9 11 16 17 12 21 25 27 27 7 13 17 17 21 26 20 26 12 17 16 13 14 3 4 5 5 7 7 7 8
10 15 14 38 10 8 5 7 8 12 10 7 4 7 7 5 3 10 13 7 8 6 19 18 14 11 6 5 4 14 22 23 20 14 16 15 12 1 3 5 8 11 9 8 7
11 6 7 25 9 15 12 11 8 5 6 4 4 5 7 5 4 2 6 2 10 8 18 17 15 18 14 16 14 18 24 20 24 14 15 17 18 6 9 10 10 11 10 9 8
17 4 8 6 8 15 17 16 12 7 7 9 4 4 7 4 5 4 2 3 3 5 3 6 11 23 24 21 8 19 24 26 22 24 20 20 23 21 15 15 16 14 10 9 8
12 6 8 5 18 17 20 13 19 7 8 9 5 11 6 5 6 5 1 2 3 4 5 6 6 2 17 24 17 10 21 22 22 20 20 18 17 10 14 8 12 14 12 10 8
26 22 16 12 17 15 15 14 19 15 2 11 10 8 9 10 8 3 3 3 2 2 2 3 4 4 8 14 12 11 15 19 19 23 22 21 24 10 5 11 17 16 14 11 8
Wind_Direction
264 255 251 255 259 261 265 262 266 276 283 306 284 292 303 303 301 295 293 286 267 236 218 203 198 197 195 198 197 176 230 235 231 199 231 172 201 194 216 208 202 208 212 204 188
275 274 268 264 265 264 260 260 269 273 273 267 300 272 287 298 302 291 288 272 248 230 220 205 195 188 185 196 197 208 230 230 230 216 238 191 218 192 195 208 228 224 229 223 214
265 275 272 270 274 282 276 260 262 265 262 259 273 270 269 291 313 243 185 335 262 226 219 215 204 188 203 184 195 208 239 228 232 222 220 206 222 211 211 227 226 227 227 227 224
263 262 269 271 267 278 286 301 262 269 262 251 249 274 260 281 263 192 209 349 296 222 207 205 198 193 215 203 205 227 239 236 240 224 201 215 199 227 220 237 209 225 225 225 228
265 262 260 266 269 262 268 276 305 264 275 255 253 262 267 254 244 254 280 302 318 198 203 198 194 202 209 212 197 231 233 223 237 244 233 241 232 250 245 243 243 248 241 236 238
264 260 257 261 264 266 261 262 269 276 291 278 258 260 263 248 257 258 272 276 268 213 208 203 213 213 231 221 209 222 240 239 238 236 244 234 250 229 245 251 244 244 247 247 244
253 261 254 257 260 262 264 262 260 269 270 303 274 264 260 245 243 242 247 225 219 211 225 220 224 199 223 241 228 234 254 220 233 232 236 212 248 239 243 252 254 243 254 250 250
253 255 263 251 254 260 267 265 260 262 262 276 283 265 259 252 242 242 242 242 220 237 251 232 233 242 226 228 130 218 237 238 202 205 223 186 257 243 231 227 249 248 251 255 255
260 254 262 260 258 257 262 271 253 257 252 258 267 262 268 260 237 244 240 238 237 256 260 253 238 226 220 220 217 209 232 225 248 202 192 207 255 262 230 224 240 244 243 246 251
258 262 256 257 262 258 257 256 253 250 234 233 239 267 245 235 236 237 234 231 225 232 248 209 213 221 216 205 215 204 222 209 220 192 211 219 242 255 227 208 238 252 253 248 248
253 257 257 263 263 249 250 242 230 209 206 202 197 195 137 355 247 242 233 215 209 217 217 202 212 216 214 218 228 260 221 230 217 199 215 231 244 252 248 245 252 255 259 257 257
252 255 258 257 255 249 240 223 222 153 246 230 234 238 244 248 304 238 214 189 198 212 203 205 228 219 225 218 223 225 224 230 256 162 209 261 257 256 260 248 247 252 253 255 259
250 256 255 256 254 245 233 230 237 243 264 232 227 234 233 223 220 250 208 207 208 204 204 210 219 206 206 205 213 224 226 220 245 187 230 283 268 242 259 243 243 247 250 253 253
247 245 246 249 252 243 239 238 244 238 250 192 196 243 223 213 228 222 219 206 214 213 205 227 224 208 209 214 207 224 222 234 231 253 251 204 274 223 228 252 230 244 241 244 249
251 243 243 233 227 219 218 222 221 198 248 156 180 204 207 184 189 212 213 212 222 206 187 215 201 205 212 218 206 225 196 216 227 239 267 238 269 241 201 255 255 241 241 240 242
240 245 237 234 233 230 208 208 181 196 226 176 160 178 162 208 216 196 191 207 231 222 212 226 206 199 209 200 197 168 158 166 205 232 244 237 237 261 241 226 231 247 235 235 234
236 239 232 225 226 224 215 170 211 218 36 177 198 192 202 199 211 203 194 195 205 196 201 217 206 192 195 189 191 185 175 184 211 205 243 191 226 249 244 241 237 254 242 228 244
237 240 237 226 232 220 188 200 218 209 190 167 194 198 202 191 214 209 201 206 216 209 195 196 205 203 188 203 183 193 188 198 207 217 239 163 238 236 235 238 252 252 262 257 256
236 238 235 239 220 212 181 218 218 202 188 204 165 196 208 205 212 201 224 211 212 215 222 207 225 190 182 188 174 199 205 216 255 74 249 218 246 272 244 247 239 243 243 233 227
228 240 243 234 225 203 203 215 204 209 189 205 205 198 200 206 196 193 199 221 221 218 233 229 228 190 201 187 202 179 200 185 218 222 227 223 239 235 213 228 226 229 222 214 216
226 234 244 229 220 203 221 206 196 206 197 201 214 206 225 187 207 205 206 213 210 213 218 231 241 176 177 201 189 194 196 205 210 227 222 241 241 194 223 213 228 211 211 207 212
216 226 221 188 190 182 209 173 187 187 207 184 231 159 195 190 198 211 218 230 202 212 212 219 248 229 203 197 217 205 195 193 201 194 224 239 240 156 240 252 211 177 171 179 190
211 223 221 184 198 182 160 168 178 172 178 179 162 189 188 198 209 197 223 228 234 234 214 209 215 226 196 210 247 221 219 203 214 214 208 211 226 101 145 184 169 160 167 163 156
211 192 216 195 203 187 169 179 159 156 152 126 106 156 148 173 221 261 222 72 357 267 256 217 220 227 230 216 195 206 213 217 212 214 217 219 238 187 198 197 182 176 170 172 159
203 201 183 175 187 189 174 176 167 146 151 149 167 208 160 161 183 210 235 196 218 266 284 239 219 215 228 258 246 213 206 209 213 213 214 211 224 224 205 202 194 176 172 168 159
166 175 173 178 159 170 174 195 181 156 147 175 163 191 191 176 191 171 211 183 266 187 244 261 258 188 244 229 232 230 228 213 213 219 228 239 234 226 217 176 185 187 179 174 164
218 214 164 163 170 169 182 165 182 156 76 176 161 153 194 228 243 341 276 289 211 208 170 249 254 222 235 229 235 235 220 222 211 215 216 221 229 186 198 199 202 195 195 172 169